Fairacres, NM

11:57 AM MDT on September 28, 2016 (GMT -0600)
Las Cruces International

Weather History for KLRU - January, 2014

Change the Weather History Date:

Wednesday, January 22, 2014

  Actual Average Record
Temperature  
Mean Temperature 47 °F -  
Max Temperature 62 °F 55 °F 69 °F (2011)
Min Temperature 32 °F 31 °F 19 °F (2015)
Degree Days  
Heating Degree Days 18    
Moisture  
Dew Point 12 °F    
Average Humidity 26    
Maximum Humidity 40    
Minimum Humidity 15    
Precipitation  
Precipitation 0.00 in - - ()
Sea Level Pressure  
Sea Level Pressure 30.06 in    
Wind  
Wind Speed 3 mph (SE)    
Max Wind Speed 9 mph    
Max Gust Speed -    
Visibility 10 miles    
Events      
Averages and records for this station are not official NWS values.
T = Trace of Precipitation, MM = Missing Value Source: NWS Daily Summary

Daily Weather History Graph

Daily Weather History Graph

Search for Another Location

Airport or City:

Trip Planner

Search our weather history database for the weather conditions in past years. The results will help you decide how hot, cold, wet, or windy it might be!

Date:

Astronomy

Jan. 22, 2014 Rise Set
Actual Time 7:06 AM MST 5:31 PM MST
Civil Twilight 6:40 AM MST 5:58 PM MST
Nautical Twilight 6:11 AM MST 6:27 PM MST
Astronomical Twilight 5:41 AM MST 6:57 PM MST
Moon 11:41 PM MST (1/22) 10:33 AM MST (1/22)
Length of Visible Light 11h 17m
Length of Day
10h 24m
Waning Gibbous, 65% of the Moon is Illuminated
Jan 22
Waning Gibbous
Jan 23
Last Quarter
Jan 30
New
Feb 6
First Quarter
Feb 14
Full

Hourly Weather History & Observations

Time (MST) Temp. Windchill Dew Point Humidity Pressure Visibility Wind Dir Wind Speed Gust Speed Precip Events Conditions
12:15 AM 36.1 °F 32.3 °F 9.1 °F 33% 30.22 in 10.0 mi North 4.6 mph - N/A   Clear
12:35 AM 37.4 °F 33.8 °F 10.0 °F 32% 30.21 in 10.0 mi North 4.6 mph - N/A   Clear
12:55 AM 38.3 °F 35.9 °F 10.4 °F 32% 30.20 in 10.0 mi North 3.5 mph - N/A   Clear
1:15 AM 38.5 °F 36.1 °F 10.8 °F 32% 30.19 in 10.0 mi NNW 3.5 mph - N/A   Clear
1:35 AM 38.8 °F 36.5 °F 11.1 °F 32% 30.19 in 10.0 mi NW 3.5 mph - N/A   Clear
1:55 AM 39.0 °F 36.8 °F 11.3 °F 32% 30.19 in 10.0 mi NW 3.5 mph - N/A   Clear
2:15 AM 39.2 °F - 11.3 °F 32% 30.18 in 10.0 mi Calm Calm - N/A   Clear
2:35 AM 38.3 °F - 11.1 °F 33% 30.17 in 10.0 mi Calm Calm - N/A   Clear
2:55 AM 37.4 °F - 10.8 °F 33% 30.17 in 10.0 mi Calm Calm - N/A   Clear
3:15 AM 36.0 °F - 10.0 °F 34% 30.17 in 10.0 mi Calm Calm - N/A   Clear
3:35 AM 34.7 °F 31.8 °F 9.9 °F 36% 30.16 in 10.0 mi SSE 3.5 mph - N/A   Clear
3:55 AM 34.3 °F - 9.7 °F 36% 30.15 in 10.0 mi Calm Calm - N/A   Clear
4:15 AM 33.4 °F - 8.4 °F 35% 30.15 in 10.0 mi Calm Calm - N/A   Clear
4:35 AM 32.4 °F - 8.1 °F 36% 30.14 in 10.0 mi Calm Calm - N/A   Clear
4:55 AM 34.3 °F 29.2 °F 9.5 °F 36% 30.14 in 10.0 mi NNE 5.8 mph - N/A   Clear
5:15 AM 35.4 °F - 10.4 °F 36% 30.15 in 10.0 mi Calm Calm - N/A   Clear
5:35 AM 33.8 °F 29.6 °F 10.2 °F 38% 30.15 in 10.0 mi West 4.6 mph - N/A   Clear
5:55 AM 32.9 °F 28.5 °F 10.6 °F 40% 30.15 in 10.0 mi NW 4.6 mph - N/A   Clear
6:15 AM 32.9 °F - 10.4 °F 39% 30.15 in 10.0 mi Calm Calm - N/A   Clear
6:35 AM 33.1 °F 30.0 °F 10.4 °F 39% 30.15 in 10.0 mi NW 3.5 mph - N/A   Clear
6:55 AM 34.3 °F - 10.4 °F 37% 30.15 in 10.0 mi Calm Calm - N/A   Clear
7:15 AM 35.4 °F - 11.1 °F 37% 30.15 in 10.0 mi Calm Calm - N/A   Clear
7:35 AM 34.5 °F - 10.4 °F 37% 30.14 in 10.0 mi Calm Calm - N/A   Clear
7:55 AM 35.2 °F - 11.3 °F 37% 30.13 in 10.0 mi Calm Calm - N/A   Clear
8:15 AM 38.5 °F - 11.8 °F 34% 30.13 in 10.0 mi Calm Calm - N/A   Clear
8:35 AM 40.1 °F - 12.7 °F 33% 30.12 in 10.0 mi Calm Calm - N/A   Clear
8:55 AM 41.0 °F - 13.5 °F 33% 30.13 in 10.0 mi Calm Calm - N/A   Clear
9:15 AM 44.4 °F - 14.0 °F 29% 30.13 in 10.0 mi Calm Calm - N/A   Clear
9:35 AM 47.1 °F - 14.4 °F 27% 30.13 in 10.0 mi Calm Calm - N/A   Clear
9:55 AM 48.2 °F - 14.0 °F 25% 30.14 in 10.0 mi Calm Calm - N/A   Clear
10:15 AM 48.4 °F - 13.5 °F 25% 30.12 in 10.0 mi ESE 3.5 mph - N/A   Clear
10:40 AM 50.9 °F - 14.0 °F 23% 30.12 in 10.0 mi Calm Calm - N/A   Clear
10:55 AM 52.5 °F - 14.4 °F 22% 30.12 in 10.0 mi ESE 3.5 mph - N/A   Clear
11:15 AM 53.2 °F - 14.0 °F 21% 30.10 in 10.0 mi Calm Calm - N/A   Clear
11:35 AM 54.5 °F - 14.2 °F 20% 30.09 in 10.0 mi East 4.6 mph - N/A   Clear
11:55 AM 55.0 °F - 14.0 °F 20% 30.07 in 10.0 mi ESE 4.6 mph - N/A   Clear
12:15 PM 56.1 °F - 14.0 °F 19% 30.05 in 10.0 mi ENE 3.5 mph - N/A   Clear
12:35 PM 56.3 °F - 13.6 °F 19% 30.03 in 10.0 mi Calm Calm - N/A   Clear
12:55 PM 57.2 °F - 13.6 °F 18% 30.02 in 10.0 mi ESE 4.6 mph - N/A   Clear
1:15 PM 58.3 °F - 12.7 °F 17% 30.01 in 10.0 mi SSW 3.5 mph - N/A   Clear
1:35 PM 59.4 °F - 12.6 °F 16% 29.99 in 10.0 mi SE 4.6 mph - N/A   Clear
1:55 PM 61.7 °F - 13.1 °F 15% 29.98 in 10.0 mi SSE 5.8 mph - N/A   Clear
2:15 PM 61.7 °F - 12.9 °F 15% 29.97 in 10.0 mi SSE 4.6 mph - N/A   Clear
2:35 PM 61.5 °F - 12.9 °F 15% 29.96 in 10.0 mi ESE 5.8 mph - N/A   Clear
2:55 PM 62.6 °F - 13.1 °F 15% 29.97 in 10.0 mi South 5.8 mph - N/A   Clear
3:20 PM 61.7 °F - 13.1 °F 15% 29.96 in 10.0 mi SSE 3.5 mph - N/A   Clear
3:35 PM 62.1 °F - 13.1 °F 15% 29.95 in 10.0 mi SE 3.5 mph - N/A   Clear
3:55 PM 61.9 °F - 13.1 °F 15% 29.96 in 10.0 mi South 5.8 mph - N/A   Clear
4:15 PM 61.7 °F - 13.1 °F 15% 29.95 in 10.0 mi South 5.8 mph - N/A   Scattered Clouds
4:35 PM 61.7 °F - 13.1 °F 15% 29.95 in 10.0 mi South 6.9 mph - N/A   Scattered Clouds
4:55 PM 61.2 °F - 13.1 °F 15% 29.95 in 10.0 mi South 3.5 mph - N/A   Mostly Cloudy
5:15 PM 60.1 °F - 13.1 °F 16% 29.96 in 10.0 mi SE 3.5 mph - N/A   Overcast
5:35 PM 58.3 °F - 13.8 °F 17% 29.96 in 10.0 mi ESE 5.8 mph - N/A   Overcast
5:55 PM 56.8 °F - 14.4 °F 19% 29.95 in 10.0 mi ESE 4.6 mph - N/A   Overcast
6:15 PM 55.4 °F - 14.4 °F 20% 29.96 in 10.0 mi East 3.5 mph - N/A   Overcast
6:35 PM 54.5 °F - 14.7 °F 21% 29.96 in 10.0 mi SE 5.8 mph - N/A   Overcast
6:55 PM 55.0 °F - 14.7 °F 20% 29.96 in 10.0 mi SE 5.8 mph - N/A   Scattered Clouds
7:15 PM 54.0 °F - 14.7 °F 21% 29.96 in 10.0 mi SE 4.6 mph - N/A   Scattered Clouds
7:35 PM 52.9 °F - 14.5 °F 22% 29.95 in 10.0 mi ESE 5.8 mph - N/A   Clear
7:55 PM 52.9 °F - 14.0 °F 21% 29.95 in 10.0 mi SE 6.9 mph - N/A   Clear
8:15 PM 52.3 °F - 14.0 °F 22% 29.95 in 10.0 mi SSE 5.8 mph - N/A   Clear
8:35 PM 50.5 °F - 13.6 °F 23% 29.96 in 10.0 mi SSE 6.9 mph - N/A   Clear
8:55 PM 49.5 °F - 13.6 °F 24% 29.96 in 10.0 mi SSE 9.2 mph - N/A   Clear
9:15 PM 50.9 °F - 13.8 °F 23% 29.96 in 10.0 mi SSE 8.1 mph - N/A   Clear
9:35 PM 50.9 °F - 13.5 °F 22% 29.96 in 10.0 mi SSE 3.5 mph - N/A   Clear
9:55 PM 49.6 °F - 12.7 °F 23% 29.98 in 10.0 mi Calm Calm - N/A   Clear
10:15 PM 48.6 °F - 12.4 °F 23% 29.98 in 10.0 mi Calm Calm - N/A   Clear
10:35 PM 47.3 °F - 11.8 °F 24% 29.98 in 10.0 mi South 3.5 mph - N/A   Clear
10:55 PM 45.9 °F - 11.8 °F 25% 29.98 in 10.0 mi Calm Calm - N/A   Clear
11:15 PM 39.9 °F 37.8 °F 9.5 °F 29% 29.98 in 10.0 mi SSE 3.5 mph - N/A   Clear
11:35 PM 42.4 °F 40.7 °F 10.0 °F 27% 29.98 in 10.0 mi SSE 3.5 mph - N/A   Clear
11:55 PM 47.3 °F - 11.1 °F 23% 29.98 in 10.0 mi South 4.6 mph - N/A   Clear